This is the latest recevied weather packets stored in our database for station/object DL4YM-13. If no packets are shown the sender has not sent any weather packets the latest 10 day(s).
| Time | Temp. | Humidity | Pressure | Rain* | Wind** | Luminosity | Snow |
|---|---|---|---|---|---|---|---|
| 1777802727 | 21.67° C | 45% | 996 hPa | - | - | - | - |
| 1777802127 | 20° C | 47% | 996.2 hPa | - | - | - | - |
| 1777801526 | 20° C | 47% | 996.2 hPa | - | - | - | - |
| 1777800927 | 20° C | 46% | 996.5 hPa | - | - | - | - |
| 1777800326 | 20° C | 46% | 996.5 hPa | - | - | - | - |
| 1777799726 | 20° C | 46% | 996.2 hPa | - | - | - | - |
| 1777799127 | 20° C | 46% | 996.2 hPa | - | - | - | - |
| 1777798526 | 19.44° C | 46% | 996.3 hPa | - | - | - | - |
| 1777797926 | 19.44° C | 47% | 996.2 hPa | - | - | - | - |
| 1777797327 | 19.44° C | 51% | 996.3 hPa | - | - | - | - |
| 1777796726 | 18.89° C | 51% | 996.3 hPa | - | - | - | - |
| 1777796127 | 18.89° C | 57% | 996.4 hPa | - | - | - | - |
| 1777795526 | 18.89° C | 57% | 996.4 hPa | - | - | - | - |
| 1777794926 | 17.78° C | 62% | 996.5 hPa | - | - | - | - |
| 1777794327 | 16.67° C | 67% | 996.4 hPa | - | - | - | - |
| 1777793726 | 16.67° C | 67% | 996.4 hPa | - | - | - | - |
| 1777793126 | 16.67° C | 67% | 996.4 hPa | - | - | - | - |
| 1777792527 | 16.67° C | 67% | 996.4 hPa | - | - | - | - |
| 1777791927 | 15.56° C | 80% | 996.5 hPa | - | - | - | - |
| 1777791326 | 15° C | 88% | 996.5 hPa | - | - | - | - |
| 1777790726 | 13.89° C | 95% | 996.6 hPa | - | - | - | - |
| 1777790126 | 12.78° C | 98% | 996.5 hPa | - | - | - | - |
| 1777789525 | 12.78° C | 98% | 996.5 hPa | - | - | - | - |
| 1777788926 | 12.78° C | 98% | 996.5 hPa | - | - | - | - |
| 1777788326 | 12.22° C | 10% | 996.3 hPa | - | - | - | - |
* Rain since midnight (hover to see other rain measurements)
** Current wind speed in m/s (hover to see current wind gust speed)